This is the latest recevied weather packets stored in our database for station/object LU1MQF-13. If no packets are shown the sender has not sent any weather packets the latest 10 day(s).
| Time | Temp. | Humidity | Pressure | Rain* | Wind** | Luminosity | Snow |
|---|---|---|---|---|---|---|---|
| 1777309910 | 18.89° C | 35% | 939.2 hPa | - | - | - | - |
| 1777309010 | 18.89° C | 35% | 939.4 hPa | - | - | - | - |
| 1777308110 | 17.78° C | 35% | 939.7 hPa | - | - | - | - |
| 1777307210 | 17.22° C | 33% | 940.1 hPa | - | - | - | - |
| 1777306309 | 17.22° C | 38% | 940.5 hPa | - | - | - | - |
| 1777305410 | 17.22° C | 39% | 940.9 hPa | - | - | - | - |
| 1777304509 | 16.11° C | 35% | 941.2 hPa | - | - | - | - |
| 1777303610 | 15° C | 35% | 941.6 hPa | - | - | - | - |
| 1777302709 | 16.11° C | 33% | 941.8 hPa | - | - | - | - |
| 1777301810 | 16.11° C | 35% | 942 hPa | - | - | - | - |
| 1777300909 | 15° C | 37% | 942 hPa | - | - | - | - |
| 1777300010 | 13.89° C | 31% | 942.3 hPa | - | - | - | - |
| 1777299109 | 13.89° C | 31% | 942.5 hPa | - | - | - | - |
| 1777298209 | 15° C | 32% | 942.5 hPa | - | - | - | - |
| 1777296408 | 13.89° C | 36% | 942.8 hPa | - | - | - | - |
| 1777295508 | 12.78° C | 33% | 942.7 hPa | - | - | - | - |
| 1777294609 | 12.78° C | 33% | 942.7 hPa | - | - | - | - |
| 1777293709 | 12.22° C | 33% | 943 hPa | - | - | - | - |
| 1777292809 | 12.22° C | 33% | 943.1 hPa | - | - | - | - |
| 1777291909 | 11.11° C | 34% | 943.3 hPa | - | - | - | - |
| 1777291008 | 11.11° C | 34% | 943.5 hPa | - | - | - | - |
| 1777290110 | 11.11° C | 35% | 943.4 hPa | - | - | - | - |
| 1777289209 | 11.11° C | 36% | 943.5 hPa | - | - | - | - |
| 1777288309 | 11.11° C | 35% | 943.6 hPa | - | - | - | - |
| 1777287408 | 11.11° C | 35% | 943.6 hPa | - | - | - | - |
* Rain since midnight (hover to see other rain measurements)
** Current wind speed in m/s (hover to see current wind gust speed)